Time,TemperatureF,DewpointF,PressureIn,WindDirection,WindDirectionDegrees,WindSpeedMPH,WindSpeedGustMPH,Humidity,HourlyPrecipIn,Conditions,Clouds,dailyrainin,SoftwareType,DateUTC
2013-03-28 00:00:00,38.6,30.8,29.94,WNW,290,0.0,222.7,73,0.00,,,0.00,VWS V14.01,2013-03-28 04:00:00,
2013-03-28 00:01:00,38.6,30.8,29.94,WNW,290,0.0,222.7,73,0.00,,,0.00,VWS V14.01,2013-03-28 04:01:00,
2013-03-28 00:02:00,38.5,30.8,29.94,WNW,290,0.0,222.7,73,0.00,,,0.00,VWS V14.01,2013-03-28 04:02:00,
2013-03-28 00:03:00,38.5,30.8,29.94,WNW,290,0.0,222.7,73,0.00,,,0.00,VWS V14.01,2013-03-28 04:03:00,
2013-03-28 00:04:00,37.8,31.5,29.94,West,264,0.0,222.7,78,0.00,,,0.00,VWS V14.01,2013-03-28 04:04:00,
2013-03-28 00:05:00,37.8,31.5,29.94,West,264,0.0,222.7,78,0.00,,,0.00,VWS V14.01,2013-03-28 04:05:00,
2013-03-28 00:06:00,37.8,31.5,29.94,West,264,0.0,222.7,78,0.00,,,0.00,VWS V14.01,2013-03-28 04:06:00,
2013-03-28 00:07:00,37.8,31.6,29.94,West,264,0.0,222.7,78,0.00,,,0.00,VWS V14.01,2013-03-28 04:07:00,
2013-03-28 00:08:00,38.5,30.9,29.94,NW,314,0.0,222.7,74,0.00,,,0.00,VWS V14.01,2013-03-28 04:08:00,
2013-03-28 00:09:00,37.7,31.5,29.94,West,264,0.0,222.7,78,0.00,,,0.00,VWS V14.01,2013-03-28 04:09:00,
2013-03-28 00:10:00,37.8,31.6,29.94,West,264,0.0,222.7,78,0.00,,,0.00,VWS V14.01,2013-03-28 04:10:00,
2013-03-28 00:11:00,37.7,31.5,29.94,West,281,0.0,222.7,78,0.00,,,0.00,VWS V14.01,2013-03-28 04:11:00,
2013-03-28 00:12:00,37.8,31.6,29.94,WNW,294,6.0,222.7,78,0.00,,,0.00,VWS V14.01,2013-03-28 04:12:00,
2013-03-28 00:13:00,38.4,31.0,29.94,NW,314,0.0,222.7,74,0.00,,,0.00,VWS V14.01,2013-03-28 04:13:00,
2013-03-28 00:14:00,37.7,31.5,29.94,WNW,290,0.0,222.7,78,0.00,,,0.00,VWS V14.01,2013-03-28 04:14:00,
2013-03-28 00:15:00,37.7,31.6,29.94,WNW,300,5.2,222.7,78,0.00,,,0.00,VWS V14.01,2013-03-28 04:15:00,
2013-03-28 00:16:00,37.7,31.6,29.94,WNW,287,0.0,222.7,78,0.00,,,0.00,VWS V14.01,2013-03-28 04:16:00,
2013-03-28 00:17:00,37.6,31.6,29.94,WNW,287,0.0,222.7,79,0.00,,,0.00,VWS V14.01,2013-03-28 04:17:00,
2013-03-28 00:18:00,37.7,31.7,29.94,WNW,287,0.0,222.7,79,0.00,,,0.00,VWS V14.01,2013-03-28 04:18:00,
2013-03-28 00:19:00,38.4,31.2,29.94,NW,314,0.0,222.7,75,0.00,,,0.00,VWS V14.01,2013-03-28 04:19:00,
2013-03-28 00:21:00,37.6,31.6,29.94,WNW,287,0.0,222.7,79,0.00,,,0.00,VWS V14.01,2013-03-28 04:21:00,
2013-03-28 00:22:00,37.6,31.6,29.94,WNW,287,0.0,222.7,79,0.00,,,0.00,VWS V14.01,2013-03-28 04:22:00,
2013-03-28 00:23:00,37.6,31.6,29.94,WNW,291,5.6,222.7,79,0.00,,,0.00,VWS V14.01,2013-03-28 04:23:00,
2013-03-28 00:24:00,38.3,31.0,29.94,WNW,287,0.0,222.7,75,0.00,,,0.00,VWS V14.01,2013-03-28 04:24:00,
2013-03-28 00:25:00,37.6,31.6,29.94,WNW,297,6.3,222.7,79,0.00,,,0.00,VWS V14.01,2013-03-28 04:25:00,
2013-03-28 00:26:00,37.5,31.6,29.94,NW,311,0.0,222.7,79,0.00,,,0.00,VWS V14.01,2013-03-28 04:26:00,
2013-03-28 00:27:00,37.5,31.6,29.94,NW,311,0.0,222.7,79,0.00,,,0.00,VWS V14.01,2013-03-28 04:27:00,
2013-03-28 00:28:00,37.4,31.5,29.94,NW,311,0.0,222.7,79,0.00,,,0.00,VWS V14.01,2013-03-28 04:28:00,
2013-03-28 00:29:00,37.4,31.6,29.94,NW,311,0.0,222.7,79,0.00,,,0.00,VWS V14.01,2013-03-28 04:29:00,
2013-03-28 00:30:00,38.3,31.3,29.94,WNW,283,0.0,222.7,76,0.00,,,0.00,VWS V14.01,2013-03-28 04:30:00,
2013-03-28 00:31:00,37.4,31.5,29.94,NW,316,0.0,222.7,79,0.00,,,0.00,VWS V14.01,2013-03-28 04:31:00,
2013-03-28 00:32:00,37.3,31.4,29.94,WNW,300,0.0,222.7,79,0.00,,,0.00,VWS V14.01,2013-03-28 04:32:00,
2013-03-28 00:33:00,37.4,31.6,29.94,NNW,329,3.1,222.7,79,0.00,,,0.00,VWS V14.01,2013-03-28 04:33:00,
2013-03-28 00:34:00,37.3,31.5,29.94,WSW,249,0.0,222.7,79,0.00,,,0.00,VWS V14.01,2013-03-28 04:34:00,
2013-03-28 00:35:00,38.2,31.2,29.94,WNW,302,0.0,222.7,76,0.00,,,0.00,VWS V14.01,2013-03-28 04:35:00,
2013-03-28 00:36:00,37.3,31.6,29.94,West,271,5.9,222.7,80,0.00,,,0.00,VWS V14.01,2013-03-28 04:36:00,
2013-03-28 00:37:00,37.3,31.5,29.94,WNW,301,6.0,222.7,79,0.00,,,0.00,VWS V14.01,2013-03-28 04:37:00,
2013-03-28 00:38:00,37.3,31.5,29.94,WNW,284,0.0,222.7,79,0.00,,,0.00,VWS V14.01,2013-03-28 04:38:00,
2013-03-28 00:39:00,37.2,31.5,29.94,West,281,0.0,222.7,80,0.00,,,0.00,VWS V14.01,2013-03-28 04:39:00,
2013-03-28 00:40:00,37.2,31.4,29.94,West,281,0.0,222.7,79,0.00,,,0.00,VWS V14.01,2013-03-28 04:40:00,
2013-03-28 00:41:00,38.1,31.3,29.94,WNW,291,4.3,222.7,76,0.00,,,0.00,VWS V14.01,2013-03-28 04:41:00,
2013-03-28 00:42:00,37.2,31.5,29.94,West,276,0.0,222.7,80,0.00,,,0.00,VWS V14.01,2013-03-28 04:42:00,
2013-03-28 00:43:00,37.1,31.5,29.94,West,278,3.0,222.7,80,0.00,,,0.00,VWS V14.01,2013-03-28 04:43:00,
2013-03-28 00:44:00,37.1,31.5,29.94,WSW,240,0.0,222.7,80,0.00,,,0.00,VWS V14.01,2013-03-28 04:44:00,
2013-03-28 00:45:00,37.1,31.5,29.94,WSW,240,0.0,222.7,80,0.00,,,0.00,VWS V14.01,2013-03-28 04:45:00,
2013-03-28 00:46:00,37.1,31.5,29.94,WSW,240,0.0,222.7,80,0.00,,,0.00,VWS V14.01,2013-03-28 04:46:00,
2013-03-28 00:47:00,38.0,31.5,29.94,WNW,291,4.6,222.7,77,0.00,,,0.00,VWS V14.01,2013-03-28 04:47:00,
2013-03-28 00:48:00,37.0,31.5,29.94,NW,307,4.2,222.7,80,0.00,,,0.00,VWS V14.01,2013-03-28 04:48:00,
2013-03-28 00:49:00,37.0,31.6,29.94,NW,304,6.0,222.7,80,0.00,,,0.00,VWS V14.01,2013-03-28 04:49:00,
2013-03-28 00:50:00,37.0,31.6,29.94,WNW,284,0.0,222.7,81,0.00,,,0.00,VWS V14.01,2013-03-28 04:50:00,
2013-03-28 00:51:00,36.9,31.5,29.94,WNW,284,0.0,222.7,81,0.00,,,0.00,VWS V14.01,2013-03-28 04:51:00,
2013-03-28 00:52:00,38.0,31.6,29.94,WSW,248,0.0,222.7,77,0.00,,,0.00,VWS V14.01,2013-03-28 04:52:00,
2013-03-28 00:53:00,36.9,31.6,29.94,WNW,284,0.0,222.7,81,0.00,,,0.00,VWS V14.01,2013-03-28 04:53:00,
2013-03-28 00:54:00,36.9,31.6,29.94,West,266,3.2,222.7,81,0.00,,,0.00,VWS V14.01,2013-03-28 04:54:00,
2013-03-28 00:55:00,36.8,31.5,29.94,NW,305,0.0,222.7,81,0.00,,,0.00,VWS V14.01,2013-03-28 04:55:00,
2013-03-28 00:56:00,36.9,31.7,29.93,NW,305,0.0,222.7,81,0.00,,,0.00,VWS V14.01,2013-03-28 04:56:00,
2013-03-28 00:57:00,36.8,31.5,29.94,NW,305,0.0,222.7,81,0.00,,,0.00,VWS V14.01,2013-03-28 04:57:00,
2013-03-28 00:58:00,36.8,31.5,29.93,NW,305,0.0,222.7,81,0.00,,,0.00,VWS V14.01,2013-03-28 04:58:00,
2013-03-28 01:00:00,36.8,31.6,29.94,NW,305,0.0,222.7,81,0.00,,,0.00,VWS V14.01,2013-03-28 05:00:00,
2013-03-28 01:01:00,36.8,31.6,29.94,NW,305,0.0,222.7,81,0.00,,,0.00,VWS V14.01,2013-03-28 05:01:00,
2013-03-28 01:02:00,36.8,31.6,29.94,NW,305,0.0,222.7,81,0.00,,,0.00,VWS V14.01,2013-03-28 05:02:00,
2013-03-28 01:03:00,36.7,31.5,29.94,NW,305,0.0,222.7,81,0.00,,,0.00,VWS V14.01,2013-03-28 05:03:00,
2013-03-28 01:04:00,36.8,31.5,29.94,NW,305,0.0,222.7,81,0.00,,,0.00,VWS V14.01,2013-03-28 05:04:00,
2013-03-28 01:05:00,36.8,31.5,29.94,WSW,240,0.0,222.7,81,0.00,,,0.00,VWS V14.01,2013-03-28 05:05:00,
2013-03-28 01:06:00,36.8,31.4,29.94,WSW,240,0.0,222.7,81,0.00,,,0.00,VWS V14.01,2013-03-28 05:06:00,
2013-03-28 01:07:00,36.8,31.4,29.94,WSW,240,0.0,222.7,81,0.00,,,0.00,VWS V14.01,2013-03-28 05:07:00,
2013-03-28 01:08:00,36.8,31.3,29.94,WNW,295,5.3,222.7,80,0.00,,,0.00,VWS V14.01,2013-03-28 05:08:00,
2013-03-28 01:10:00,36.8,31.2,29.93,NW,325,5.4,222.7,80,0.00,,,0.00,VWS V14.01,2013-03-28 05:10:00,
2013-03-28 01:11:00,36.9,31.4,29.93,NW,309,0.0,222.7,80,0.00,,,0.00,VWS V14.01,2013-03-28 05:11:00,
2013-03-28 01:12:00,36.9,31.4,29.93,NW,309,0.0,222.7,80,0.00,,,0.00,VWS V14.01,2013-03-28 05:12:00,
2013-03-28 01:14:00,36.9,31.4,29.93,NW,312,3.3,222.7,80,0.00,,,0.00,VWS V14.01,2013-03-28 05:14:00,
2013-03-28 01:16:00,36.8,31.2,29.93,NW,312,0.0,222.7,80,0.00,,,0.00,VWS V14.01,2013-03-28 05:16:00,
2013-03-28 01:19:00,36.8,31.3,29.93,NW,304,0.0,222.7,80,0.00,,,0.00,VWS V14.01,2013-03-28 05:19:00,
2013-03-28 01:21:00,36.8,31.3,29.93,NW,304,0.0,222.7,80,0.00,,,0.00,VWS V14.01,2013-03-28 05:21:00,
2013-03-28 01:37:00,36.8,31.3,29.93,NNW,338,0.0,222.7,80,0.00,,,0.00,VWS V14.01,2013-03-28 05:37:00,
2013-03-28 01:43:00,36.9,31.3,29.93,NW,311,0.0,222.7,80,0.00,,,0.00,VWS V14.01,2013-03-28 05:43:00,
2013-03-28 01:58:00,37.1,31.4,29.93,WNW,298,0.0,222.7,80,0.00,,,0.00,VWS V14.01,2013-03-28 05:58:00,
2013-03-28 02:02:00,37.1,31.3,29.93,NW,308,0.0,222.7,79,0.00,,,0.00,VWS V14.01,2013-03-28 06:02:00,
2013-03-28 02:07:00,36.8,31.3,29.93,NW,316,0.0,222.7,80,0.00,,,0.00,VWS V14.01,2013-03-28 06:07:00,
2013-03-28 02:09:00,37.1,31.2,29.93,NW,321,0.0,222.7,79,0.00,,,0.00,VWS V14.01,2013-03-28 06:09:00,
2013-03-28 02:11:00,37.1,31.2,29.93,WNW,297,4.2,222.7,79,0.00,,,0.00,VWS V14.01,2013-03-28 06:11:00,
2013-03-28 02:13:00,36.9,31.4,29.93,NW,312,0.0,222.7,80,0.00,,,0.00,VWS V14.01,2013-03-28 06:13:00,
2013-03-28 02:19:00,36.8,31.3,29.93,NW,304,0.0,222.7,80,0.00,,,0.00,VWS V14.01,2013-03-28 06:19:00,
2013-03-28 02:24:00,36.8,31.2,29.93,WNW,291,0.0,222.7,80,0.00,,,0.00,VWS V14.01,2013-03-28 06:24:00,
2013-03-28 02:29:00,36.8,31.2,29.93,NW,315,4.9,222.7,80,0.00,,,0.00,VWS V14.01,2013-03-28 06:29:00,
2013-03-28 02:34:00,36.8,31.2,29.93,NNW,338,0.0,222.7,80,0.00,,,0.00,VWS V14.01,2013-03-28 06:34:00,
2013-03-28 02:40:00,36.9,31.3,29.93,NW,319,5.7,222.7,80,0.00,,,0.00,VWS V14.01,2013-03-28 06:40:00,
2013-03-28 02:45:00,36.9,31.2,29.93,NW,311,4.9,222.7,80,0.00,,,0.00,VWS V14.01,2013-03-28 06:45:00,
2013-03-28 02:50:00,37.0,31.2,29.94,WNW,283,0.0,222.7,79,0.00,,,0.00,VWS V14.01,2013-03-28 06:50:00,
2013-03-28 02:56:00,37.1,31.4,29.94,WNW,298,0.0,222.7,80,0.00,,,0.00,VWS V14.01,2013-03-28 06:56:00,
2013-03-28 03:01:00,37.0,31.2,29.94,NW,319,5.7,222.7,79,0.00,,,0.00,VWS V14.01,2013-03-28 07:01:00,
2013-03-28 03:06:00,37.0,31.1,29.93,WNW,301,0.0,222.7,79,0.00,,,0.00,VWS V14.01,2013-03-28 07:06:00,
2013-03-28 03:12:00,37.0,31.2,29.93,NW,311,0.0,222.7,79,0.00,,,0.00,VWS V14.01,2013-03-28 07:12:00,
2013-03-28 03:18:00,37.0,31.1,29.93,NW,312,0.0,222.7,79,0.00,,,0.00,VWS V14.01,2013-03-28 07:18:00,
2013-03-28 03:23:00,37.1,31.1,29.93,WNW,295,0.0,222.7,79,0.00,,,0.00,VWS V14.01,2013-03-28 07:23:00,
2013-03-28 03:28:00,37.1,31.1,29.93,WNW,295,0.0,222.7,79,0.00,,,0.00,VWS V14.01,2013-03-28 07:28:00,
2013-03-28 03:34:00,37.1,31.1,29.93,WNW,295,0.0,222.7,79,0.00,,,0.00,VWS V14.01,2013-03-28 07:34:00,
2013-03-28 03:39:00,37.1,31.2,29.94,WNW,295,0.0,222.7,79,0.00,,,0.00,VWS V14.01,2013-03-28 07:39:00,
2013-03-28 03:44:00,37.1,31.3,29.94,WNW,295,0.0,222.7,79,0.00,,,0.00,VWS V14.01,2013-03-28 07:44:00,
2013-03-28 03:49:00,37.1,31.4,29.94,NW,322,0.0,222.7,80,0.00,,,0.00,VWS V14.01,2013-03-28 07:49:00,
2013-03-28 03:55:00,37.1,31.5,29.94,WNW,295,0.0,222.7,80,0.00,,,0.00,VWS V14.01,2013-03-28 07:55:00,
2013-03-28 04:00:00,37.1,31.6,29.94,WNW,295,0.0,222.7,80,0.00,,,0.00,VWS V14.01,2013-03-28 08:00:00,
2013-03-28 04:05:00,37.0,31.6,29.94,WNW,295,0.0,222.7,81,0.00,,,0.00,VWS V14.01,2013-03-28 08:05:00,
2013-03-28 04:10:00,36.9,31.7,29.94,West,264,0.0,222.7,81,0.00,,,0.00,VWS V14.01,2013-03-28 08:10:00,
2013-03-28 04:16:00,36.8,31.7,29.94,NW,305,0.0,222.7,82,0.00,,,0.00,VWS V14.01,2013-03-28 08:16:00,
2013-03-28 04:21:00,36.8,31.9,29.94,WNW,297,2.7,222.7,82,0.00,,,0.00,VWS V14.01,2013-03-28 08:21:00,
2013-03-28 04:26:00,36.7,31.9,29.94,WNW,287,0.0,222.7,83,0.00,,,0.00,VWS V14.01,2013-03-28 08:26:00,
2013-03-28 04:32:00,36.7,31.9,29.94,NW,315,0.0,222.7,83,0.00,,,0.00,VWS V14.01,2013-03-28 08:32:00,
2013-03-28 04:37:00,36.8,32.2,29.94,WNW,302,0.0,222.7,83,0.00,,,0.00,VWS V14.01,2013-03-28 08:37:00,
2013-03-28 04:42:00,36.7,31.9,29.94,WNW,302,0.0,222.7,83,0.00,,,0.00,VWS V14.01,2013-03-28 08:42:00,
2013-03-28 04:47:00,36.6,31.9,29.94,NNW,330,0.0,222.7,83,0.00,,,0.00,VWS V14.01,2013-03-28 08:47:00,
2013-03-28 04:52:00,36.6,32.0,29.94,NNW,330,0.0,222.7,83,0.00,,,0.00,VWS V14.01,2013-03-28 08:52:00,
2013-03-28 04:58:00,36.5,32.0,29.94,West,280,0.0,222.7,84,0.00,,,0.00,VWS V14.01,2013-03-28 08:58:00,
2013-03-28 05:03:00,36.5,32.0,29.94,WNW,292,0.0,222.7,84,0.00,,,0.00,VWS V14.01,2013-03-28 09:03:00,
2013-03-28 05:08:00,36.5,32.0,29.94,West,264,0.0,222.7,83,0.00,,,0.00,VWS V14.01,2013-03-28 09:08:00,
2013-03-28 05:13:00,36.4,32.0,29.94,West,277,0.0,222.7,84,0.00,,,0.00,VWS V14.01,2013-03-28 09:13:00,
2013-03-28 05:19:00,36.4,31.9,29.94,NW,312,0.0,222.7,83,0.00,,,0.00,VWS V14.01,2013-03-28 09:19:00,
2013-03-28 05:24:00,36.4,32.0,29.94,WNW,301,0.0,222.7,84,0.00,,,0.00,VWS V14.01,2013-03-28 09:24:00,
2013-03-28 05:29:00,36.4,31.9,29.94,WNW,301,0.0,222.7,84,0.00,,,0.00,VWS V14.01,2013-03-28 09:29:00,
2013-03-28 05:35:00,36.2,31.8,29.94,WNW,298,0.0,222.7,84,0.00,,,0.00,VWS V14.01,2013-03-28 09:35:00,
2013-03-28 05:40:00,36.2,31.8,29.94,WNW,298,0.0,222.7,84,0.00,,,0.00,VWS V14.01,2013-03-28 09:40:00,
2013-03-28 05:45:00,36.1,31.7,29.94,WNW,298,0.0,222.7,84,0.00,,,0.00,VWS V14.01,2013-03-28 09:45:00,
2013-03-28 05:50:00,36.0,31.8,29.94,WNW,298,0.0,222.7,84,0.00,,,0.00,VWS V14.01,2013-03-28 09:50:00,
2013-03-28 05:55:00,36.0,31.7,29.94,WNW,298,0.0,222.7,84,0.00,,,0.00,VWS V14.01,2013-03-28 09:55:00,
2013-03-28 06:01:00,35.9,31.6,29.94,WNW,298,0.0,222.7,84,0.00,,,0.00,VWS V14.01,2013-03-28 10:01:00,
2013-03-28 06:06:00,36.0,31.7,29.94,NW,326,0.0,222.7,84,0.00,,,0.00,VWS V14.01,2013-03-28 10:06:00,
2013-03-28 06:11:00,36.0,31.7,29.94,WNW,285,0.0,222.7,84,0.00,,,0.00,VWS V14.01,2013-03-28 10:11:00,
2013-03-28 06:17:00,36.0,31.7,29.94,WNW,285,0.0,222.7,84,0.00,,,0.00,VWS V14.01,2013-03-28 10:17:00,
2013-03-28 06:22:00,35.9,31.6,29.95,NW,309,0.0,222.7,84,0.00,,,0.00,VWS V14.01,2013-03-28 10:22:00,
2013-03-28 06:27:00,35.9,31.6,29.95,WNW,301,0.0,222.7,84,0.00,,,0.00,VWS V14.01,2013-03-28 10:27:00,
2013-03-28 06:32:00,35.9,31.5,29.95,WNW,301,0.0,222.7,84,0.00,,,0.00,VWS V14.01,2013-03-28 10:32:00,
2013-03-28 06:37:00,35.8,31.5,29.95,WNW,301,0.0,222.7,84,0.00,,,0.00,VWS V14.01,2013-03-28 10:37:00,
2013-03-28 06:43:00,35.6,31.4,29.95,WNW,301,0.0,222.7,85,0.00,,,0.00,VWS V14.01,2013-03-28 10:43:00,
2013-03-28 06:48:00,35.5,31.5,29.95,WNW,301,0.0,222.7,85,0.00,,,0.00,VWS V14.01,2013-03-28 10:48:00,
2013-03-28 06:53:00,35.4,31.5,29.95,WNW,301,0.0,222.7,86,0.00,,,0.00,VWS V14.01,2013-03-28 10:53:00,
2013-03-28 06:58:00,35.5,31.7,29.95,WNW,301,0.0,222.7,86,0.00,,,0.00,VWS V14.01,2013-03-28 10:58:00,
2013-03-28 07:04:00,35.4,31.5,29.96,WNW,301,0.0,222.7,86,0.00,,,0.00,VWS V14.01,2013-03-28 11:04:00,
2013-03-28 07:09:00,35.4,31.5,29.96,WNW,301,0.0,222.7,86,0.00,,,0.00,VWS V14.01,2013-03-28 11:09:00,
2013-03-28 07:14:00,35.4,31.5,29.96,WNW,301,0.0,222.7,86,0.00,,,0.00,VWS V14.01,2013-03-28 11:14:00,
2013-03-28 07:19:00,35.4,31.5,29.96,WNW,301,0.0,222.7,86,0.00,,,0.00,VWS V14.01,2013-03-28 11:19:00,
2013-03-28 07:25:00,35.4,31.5,29.96,WNW,301,0.0,222.7,85,0.00,,,0.00,VWS V14.01,2013-03-28 11:25:00,
2013-03-28 07:30:00,35.6,31.5,29.96,WNW,301,0.0,222.7,85,0.00,,,0.00,VWS V14.01,2013-03-28 11:30:00,
2013-03-28 07:35:00,35.7,31.5,29.97,WNW,301,0.0,222.7,84,0.00,,,0.00,VWS V14.01,2013-03-28 11:35:00,
2013-03-28 07:41:00,35.8,31.5,29.97,WNW,301,0.0,222.7,84,0.00,,,0.00,VWS V14.01,2013-03-28 11:41:00,
2013-03-28 07:47:00,36.0,31.5,29.97,WNW,301,0.0,222.7,83,0.00,,,0.00,VWS V14.01,2013-03-28 11:47:00,
2013-03-28 07:52:00,36.2,31.5,29.97,WNW,301,0.0,222.7,83,0.00,,,0.00,VWS V14.01,2013-03-28 11:52:00,
2013-03-28 07:58:00,36.4,31.4,29.97,WNW,301,0.0,222.7,82,0.00,,,0.00,VWS V14.01,2013-03-28 11:58:00,
2013-03-28 08:04:00,36.7,31.2,29.97,WNW,301,0.0,222.7,80,0.00,,,0.00,VWS V14.01,2013-03-28 12:04:00,
2013-03-28 08:09:00,37.0,31.1,29.97,WNW,301,0.0,222.7,79,0.00,,,0.00,VWS V14.01,2013-03-28 12:09:00,
2013-03-28 08:15:00,37.4,31.0,29.97,WNW,301,0.0,222.7,77,0.00,,,0.00,VWS V14.01,2013-03-28 12:15:00,
2013-03-28 08:20:00,38.0,31.0,29.97,WNW,298,0.0,222.7,76,0.00,,,0.00,VWS V14.01,2013-03-28 12:20:00,
2013-03-28 08:26:00,38.4,31.5,29.97,WNW,298,0.0,222.7,76,0.00,,,0.00,VWS V14.01,2013-03-28 12:26:00,
2013-03-28 08:32:00,38.8,30.9,29.97,WNW,290,5.5,222.7,73,0.00,,,0.00,VWS V14.01,2013-03-28 12:32:00,
2013-03-28 08:37:00,39.0,31.0,29.97,NW,326,0.0,222.7,73,0.00,,,0.00,VWS V14.01,2013-03-28 12:37:00,
2013-03-28 08:43:00,39.2,31.1,29.97,NNW,343,0.0,222.7,72,0.00,,,0.00,VWS V14.01,2013-03-28 12:43:00,
2013-03-28 08:49:00,39.2,31.0,29.97,NNW,329,0.0,222.7,72,0.00,,,0.00,VWS V14.01,2013-03-28 12:49:00,
2013-03-28 08:54:00,39.5,31.2,29.98,NW,311,0.0,222.7,72,0.00,,,0.00,VWS V14.01,2013-03-28 12:54:00,
2013-03-28 09:00:00,40.0,31.5,29.98,NW,311,0.0,222.7,71,0.00,,,0.00,VWS V14.01,2013-03-28 13:00:00,
2013-03-28 09:05:00,40.4,31.8,29.98,North,11,0.0,222.7,71,0.00,,,0.00,VWS V14.01,2013-03-28 13:05:00,
2013-03-28 09:10:00,40.3,31.0,29.98,NW,325,7.8,222.7,69,0.00,,,0.00,VWS V14.01,2013-03-28 13:10:00,
2013-03-28 09:16:00,40.3,31.8,29.98,NNW,336,5.7,222.7,71,0.00,,,0.00,VWS V14.01,2013-03-28 13:16:00,
2013-03-28 09:21:00,40.4,31.7,29.98,North,4,5.4,222.7,71,0.00,,,0.00,VWS V14.01,2013-03-28 13:21:00,
2013-03-28 09:26:00,40.0,31.3,29.98,North,353,5.5,222.7,71,0.00,,,0.00,VWS V14.01,2013-03-28 13:26:00,
2013-03-28 09:32:00,40.4,31.7,29.98,NNE,14,6.3,222.7,71,0.00,,,0.00,VWS V14.01,2013-03-28 13:32:00,
2013-03-28 09:37:00,40.1,31.7,29.98,NNE,21,4.2,222.7,72,0.00,,,0.00,VWS V14.01,2013-03-28 13:37:00,
2013-03-28 09:42:00,40.3,31.9,29.99,North,10,4.3,222.7,72,0.00,,,0.00,VWS V14.01,2013-03-28 13:42:00,
2013-03-28 09:48:00,40.6,32.3,29.98,NNW,347,0.0,222.7,72,0.00,,,0.00,VWS V14.01,2013-03-28 13:48:00,
2013-03-28 09:53:00,41.2,32.8,29.98,North,359,4.6,222.7,72,0.00,,,0.00,VWS V14.01,2013-03-28 13:53:00,
2013-03-28 09:58:00,41.2,32.7,29.98,NNE,13,5.8,222.7,71,0.00,,,0.00,VWS V14.01,2013-03-28 13:58:00,
2013-03-28 10:03:00,41.6,32.5,29.99,NNW,329,9.1,222.7,70,0.00,,,0.00,VWS V14.01,2013-03-28 14:03:00,
2013-03-28 10:09:00,41.8,32.9,29.99,North,349,0.0,222.7,70,0.00,,,0.00,VWS V14.01,2013-03-28 14:09:00,
2013-03-28 10:14:00,42.1,33.1,29.99,NNW,343,6.5,222.7,70,0.00,,,0.00,VWS V14.01,2013-03-28 14:14:00,
2013-03-28 10:19:00,41.6,33.5,29.99,North,1,0.0,222.7,73,0.00,,,0.00,VWS V14.01,2013-03-28 14:19:00,
2013-03-28 10:24:00,41.6,33.9,30.00,WNW,302,7.3,222.7,74,0.00,,,0.00,VWS V14.01,2013-03-28 14:24:00,
2013-03-28 10:30:00,41.7,34.1,30.00,NE,46,5.6,222.7,74,0.00,,,0.00,VWS V14.01,2013-03-28 14:30:00,
2013-03-28 10:35:00,42.2,34.4,30.00,North,359,6.0,222.7,74,0.00,,,0.00,VWS V14.01,2013-03-28 14:35:00,
2013-03-28 10:40:00,42.0,34.6,30.00,ENE,70,5.0,222.7,75,0.00,,,0.00,VWS V14.01,2013-03-28 14:40:00,
2013-03-28 10:46:00,42.9,35.0,30.00,North,353,0.0,222.7,73,0.00,,,0.00,VWS V14.01,2013-03-28 14:46:00,
2013-03-28 10:51:00,42.8,34.8,30.00,NNW,333,4.3,222.7,73,0.00,,,0.00,VWS V14.01,2013-03-28 14:51:00,
2013-03-28 10:57:00,42.3,34.7,30.00,West,281,0.0,222.7,74,0.00,,,0.00,VWS V14.01,2013-03-28 14:57:00,
2013-03-28 11:03:00,41.9,35.0,30.00,NNW,339,10.1,222.7,76,0.00,,,0.00,VWS V14.01,2013-03-28 15:03:00,
2013-03-28 11:08:00,42.0,35.0,30.00,North,349,8.3,222.7,76,0.00,,,0.00,VWS V14.01,2013-03-28 15:08:00,
2013-03-28 11:13:00,41.7,35.1,30.01,North,359,6.2,222.7,77,0.00,,,0.00,VWS V14.01,2013-03-28 15:13:00,
2013-03-28 11:18:00,41.9,35.3,30.00,North,359,0.0,222.7,77,0.00,,,0.00,VWS V14.01,2013-03-28 15:18:00,
2013-03-28 11:24:00,42.2,35.3,30.01,North,359,0.0,222.7,76,0.00,,,0.00,VWS V14.01,2013-03-28 15:24:00,
2013-03-28 11:29:00,42.3,35.5,30.00,NW,319,6.0,222.7,76,0.00,,,0.00,VWS V14.01,2013-03-28 15:29:00,
2013-03-28 11:34:00,42.8,35.5,30.00,North,0,5.7,222.7,75,0.00,,,0.00,VWS V14.01,2013-03-28 15:34:00,
2013-03-28 11:39:00,43.3,35.9,30.00,NW,319,4.7,222.7,75,0.00,,,0.00,VWS V14.01,2013-03-28 15:39:00,
2013-03-28 11:45:00,43.4,35.8,30.00,NNE,31,7.4,222.7,74,0.00,,,0.00,VWS V14.01,2013-03-28 15:45:00,
2013-03-28 11:50:00,43.4,36.5,30.01,NW,315,6.0,222.7,77,0.00,,,0.00,VWS V14.01,2013-03-28 15:50:00,
2013-03-28 11:55:00,42.7,37.2,30.01,WNW,283,0.0,222.7,81,0.00,,,0.00,VWS V14.01,2013-03-28 15:55:00,
2013-03-28 12:01:00,42.6,36.8,30.01,North,352,6.8,222.7,80,0.00,,,0.00,VWS V14.01,2013-03-28 16:01:00,
2013-03-28 12:06:00,43.0,36.8,30.01,NNW,332,7.9,222.7,79,0.00,,,0.00,VWS V14.01,2013-03-28 16:06:00,
2013-03-28 12:11:00,42.1,37.1,30.01,North,11,8.5,222.7,82,0.00,,,0.00,VWS V14.01,2013-03-28 16:11:00,
2013-03-28 12:16:00,42.5,36.9,30.01,NW,319,4.6,222.7,80,0.00,,,0.00,VWS V14.01,2013-03-28 16:16:00,
2013-03-28 12:22:00,43.4,37.8,30.01,WSW,255,0.0,222.7,80,0.00,,,0.00,VWS V14.01,2013-03-28 16:22:00,
2013-03-28 12:27:00,44.0,37.4,30.01,North,359,8.0,222.7,77,0.00,,,0.00,VWS V14.01,2013-03-28 16:27:00,
2013-03-28 12:32:00,44.1,37.1,30.01,NW,323,8.1,222.7,76,0.00,,,0.00,VWS V14.01,2013-03-28 16:32:00,
2013-03-28 12:38:00,44.8,37.2,30.01,WNW,292,4.7,222.7,74,0.00,,,0.00,VWS V14.01,2013-03-28 16:38:00,
2013-03-28 12:43:00,44.2,35.4,30.01,NNW,339,9.7,222.7,71,0.00,,,0.00,VWS V14.01,2013-03-28 16:43:00,
2013-03-28 12:48:00,44.2,36.8,30.01,North,10,0.0,222.7,75,0.00,,,0.00,VWS V14.01,2013-03-28 16:48:00,
2013-03-28 12:53:00,44.8,36.3,30.00,NW,305,9.5,222.7,72,0.00,,,0.00,VWS V14.01,2013-03-28 16:53:00,
2013-03-28 12:59:00,44.8,35.5,30.01,North,354,8.5,222.7,70,0.00,,,0.00,VWS V14.01,2013-03-28 16:59:00,
2013-03-28 13:04:00,45.3,35.6,30.00,NNW,333,7.5,222.7,69,0.00,,,0.00,VWS V14.01,2013-03-28 17:04:00,
2013-03-28 13:09:00,45.6,36.0,30.00,NW,323,0.0,222.7,69,0.00,,,0.00,VWS V14.01,2013-03-28 17:09:00,
2013-03-28 13:15:00,45.5,35.6,30.00,North,356,0.0,222.7,68,0.00,,,0.00,VWS V14.01,2013-03-28 17:15:00,
2013-03-28 13:20:00,45.2,35.4,30.00,NNW,333,0.0,222.7,68,0.00,,,0.00,VWS V14.01,2013-03-28 17:20:00,
2013-03-28 13:25:00,45.0,35.6,30.00,NNW,343,9.9,222.7,69,0.00,,,0.00,VWS V14.01,2013-03-28 17:25:00,
2013-03-28 13:30:00,45.8,35.4,30.00,NNE,21,0.0,222.7,67,0.00,,,0.00,VWS V14.01,2013-03-28 17:30:00,
2013-03-28 13:36:00,45.9,35.7,30.00,North,4,6.0,222.7,67,0.00,,,0.00,VWS V14.01,2013-03-28 17:36:00,
2013-03-28 13:41:00,44.2,36.0,30.00,NW,316,8.8,222.7,73,0.00,,,0.00,VWS V14.01,2013-03-28 17:41:00,
2013-03-28 13:46:00,44.4,35.7,30.00,NW,321,7.9,222.7,71,0.00,,,0.00,VWS V14.01,2013-03-28 17:46:00,
2013-03-28 13:52:00,44.7,35.9,30.00,NW,316,6.3,222.7,71,0.00,,,0.00,VWS V14.01,2013-03-28 17:52:00,
2013-03-28 13:57:00,45.3,36.3,30.00,NW,307,0.0,222.7,70,0.00,,,0.00,VWS V14.01,2013-03-28 17:57:00,
2013-03-28 14:02:00,45.6,36.0,30.00,WNW,291,6.3,222.7,69,0.00,,,0.00,VWS V14.01,2013-03-28 18:02:00,
2013-03-28 14:07:00,45.8,34.8,30.00,NW,305,6.1,222.7,65,0.00,,,0.00,VWS V14.01,2013-03-28 18:07:00,
2013-03-28 14:13:00,46.0,35.4,30.00,WNW,297,0.0,222.7,66,0.00,,,0.00,VWS V14.01,2013-03-28 18:13:00,
2013-03-28 14:18:00,46.4,35.0,30.00,NNW,345,0.0,222.7,64,0.00,,,0.00,VWS V14.01,2013-03-28 18:18:00,
2013-03-28 14:23:00,46.9,34.9,30.00,West,264,0.0,222.7,63,0.00,,,0.00,VWS V14.01,2013-03-28 18:23:00,
2013-03-28 14:29:00,47.1,34.4,30.00,North,352,9.4,222.7,61,0.00,,,0.00,VWS V14.01,2013-03-28 18:29:00,
2013-03-28 14:34:00,47.1,34.2,30.00,North,7,4.5,222.7,61,0.00,,,0.00,VWS V14.01,2013-03-28 18:34:00,
2013-03-28 14:39:00,47.4,34.3,30.00,North,353,0.0,222.7,60,0.00,,,0.00,VWS V14.01,2013-03-28 18:39:00,
2013-03-28 14:45:00,47.7,34.5,30.00,NW,319,6.3,222.7,60,0.00,,,0.00,VWS V14.01,2013-03-28 18:45:00,
2013-03-28 14:50:00,47.9,34.5,30.00,NW,322,7.4,222.7,59,0.00,,,0.00,VWS V14.01,2013-03-28 18:50:00,
2013-03-28 14:55:00,48.5,35.3,30.00,North,4,0.0,222.7,60,0.00,,,0.00,VWS V14.01,2013-03-28 18:55:00,
2013-03-28 15:00:00,48.7,34.1,30.00,West,271,0.0,222.7,57,0.00,,,0.00,VWS V14.01,2013-03-28 19:00:00,
2013-03-28 15:06:00,47.8,33.9,30.00,North,359,0.0,222.7,58,0.00,,,0.00,VWS V14.01,2013-03-28 19:06:00,
2013-03-28 15:11:00,47.2,33.7,30.00,North,359,5.3,222.7,59,0.00,,,0.00,VWS V14.01,2013-03-28 19:11:00,
2013-03-28 15:16:00,47.3,33.8,30.00,North,359,8.0,222.7,59,0.00,,,0.00,VWS V14.01,2013-03-28 19:16:00,
2013-03-28 15:22:00,46.5,33.3,30.00,WNW,290,5.3,222.7,60,0.00,,,0.00,VWS V14.01,2013-03-28 19:22:00,
2013-03-28 15:27:00,46.8,34.2,30.00,NW,308,3.0,222.7,61,0.00,,,0.00,VWS V14.01,2013-03-28 19:27:00,
2013-03-28 15:33:00,47.4,33.6,30.00,NW,315,0.0,222.7,58,0.00,,,0.00,VWS V14.01,2013-03-28 19:33:00,
2013-03-28 15:38:00,47.2,33.9,30.00,NNW,338,0.0,222.7,60,0.00,,,0.00,VWS V14.01,2013-03-28 19:38:00,
2013-03-28 15:44:00,47.3,34.1,30.00,North,7,5.0,222.7,60,0.00,,,0.00,VWS V14.01,2013-03-28 19:44:00,
2013-03-28 15:49:00,47.3,33.8,30.00,North,7,0.0,222.7,59,0.00,,,0.00,VWS V14.01,2013-03-28 19:49:00,
2013-03-28 15:54:00,47.1,33.9,30.00,NNW,328,7.1,222.7,60,0.00,,,0.00,VWS V14.01,2013-03-28 19:54:00,
2013-03-28 16:00:00,46.9,33.2,30.00,North,6,5.3,222.7,59,0.00,,,0.00,VWS V14.01,2013-03-28 20:00:00,
2013-03-28 16:05:00,46.7,34.1,30.00,NW,322,0.0,222.7,61,0.00,,,0.00,VWS V14.01,2013-03-28 20:05:00,
2013-03-28 16:10:00,46.3,34.0,30.00,NNW,343,7.5,222.7,62,0.00,,,0.00,VWS V14.01,2013-03-28 20:10:00,
2013-03-28 16:15:00,46.2,34.2,30.00,North,1,0.0,222.7,63,0.00,,,0.00,VWS V14.01,2013-03-28 20:15:00,
2013-03-28 16:21:00,46.5,34.5,30.00,NNW,338,4.6,222.7,63,0.00,,,0.00,VWS V14.01,2013-03-28 20:21:00,
2013-03-28 16:26:00,46.9,34.5,30.00,NNW,328,0.0,222.7,62,0.00,,,0.00,VWS V14.01,2013-03-28 20:26:00,
2013-03-28 16:31:00,47.2,34.3,30.00,NNW,328,3.3,222.7,61,0.00,,,0.00,VWS V14.01,2013-03-28 20:31:00,
2013-03-28 16:37:00,46.8,33.6,30.00,North,1,5.0,222.7,60,0.00,,,0.00,VWS V14.01,2013-03-28 20:37:00,
2013-03-28 16:42:00,46.4,33.8,30.00,WNW,290,4.7,222.7,61,0.00,,,0.00,VWS V14.01,2013-03-28 20:42:00,
2013-03-28 16:47:00,46.2,33.9,30.00,North,359,0.0,222.7,62,0.00,,,0.00,VWS V14.01,2013-03-28 20:47:00,
2013-03-28 16:52:00,45.9,33.9,30.00,North,1,5.1,222.7,63,0.00,,,0.00,VWS V14.01,2013-03-28 20:52:00,
2013-03-28 16:58:00,45.9,34.1,30.01,NNE,20,3.4,222.7,63,0.00,,,0.00,VWS V14.01,2013-03-28 20:58:00,
2013-03-28 17:03:00,46.1,33.9,30.00,WNW,295,4.8,222.7,62,0.00,,,0.00,VWS V14.01,2013-03-28 21:03:00,
2013-03-28 17:08:00,46.4,33.8,30.01,NNW,340,4.4,222.7,61,0.00,,,0.00,VWS V14.01,2013-03-28 21:08:00,
2013-03-28 17:13:00,46.7,33.9,30.01,NW,316,5.5,222.7,61,0.00,,,0.00,VWS V14.01,2013-03-28 21:13:00,
2013-03-28 17:19:00,46.3,33.5,30.01,NNW,335,5.3,222.7,61,0.00,,,0.00,VWS V14.01,2013-03-28 21:19:00,
2013-03-28 17:24:00,46.2,33.7,30.01,NW,309,6.0,222.7,61,0.00,,,0.00,VWS V14.01,2013-03-28 21:24:00,
2013-03-28 17:29:00,46.0,33.2,30.01,NW,308,3.4,222.7,61,0.00,,,0.00,VWS V14.01,2013-03-28 21:29:00,
2013-03-28 17:35:00,46.4,33.7,30.01,NW,315,2.9,222.7,61,0.00,,,0.00,VWS V14.01,2013-03-28 21:35:00,
2013-03-28 17:40:00,46.5,33.4,30.01,North,359,0.0,222.7,60,0.00,,,0.00,VWS V14.01,2013-03-28 21:40:00,
2013-03-28 17:45:00,46.2,33.0,30.01,WNW,297,8.1,222.7,60,0.00,,,0.00,VWS V14.01,2013-03-28 21:45:00,
2013-03-28 17:50:00,46.1,32.9,30.02,North,7,0.0,222.7,60,0.00,,,0.00,VWS V14.01,2013-03-28 21:50:00,
2013-03-28 17:56:00,46.2,33.3,30.02,NW,326,0.0,222.7,60,0.00,,,0.00,VWS V14.01,2013-03-28 21:56:00,
2013-03-28 18:01:00,46.2,33.2,30.02,NNW,335,0.0,222.7,60,0.00,,,0.00,VWS V14.01,2013-03-28 22:01:00,
2013-03-28 18:07:00,46.0,33.2,30.02,WNW,295,0.0,222.7,61,0.00,,,0.00,VWS V14.01,2013-03-28 22:07:00,
2013-03-28 18:12:00,46.0,33.4,30.02,WNW,298,0.0,222.7,61,0.00,,,0.00,VWS V14.01,2013-03-28 22:12:00,
2013-03-28 18:17:00,45.7,33.0,30.02,NNW,340,0.0,222.7,61,0.00,,,0.00,VWS V14.01,2013-03-28 22:17:00,
2013-03-28 18:23:00,45.7,33.2,30.02,NW,304,0.0,222.7,61,0.00,,,0.00,VWS V14.01,2013-03-28 22:23:00,
2013-03-28 18:28:00,45.6,33.3,30.02,NNW,333,0.0,222.7,62,0.00,,,0.00,VWS V14.01,2013-03-28 22:28:00,
2013-03-28 18:33:00,45.5,33.3,30.03,NNE,15,0.0,222.7,62,0.00,,,0.00,VWS V14.01,2013-03-28 22:33:00,
2013-03-28 18:38:00,45.5,33.4,30.03,NNE,15,0.0,222.7,62,0.00,,,0.00,VWS V14.01,2013-03-28 22:38:00,
2013-03-28 18:44:00,45.4,33.4,30.03,NNE,15,0.0,222.7,63,0.00,,,0.00,VWS V14.01,2013-03-28 22:44:00,
2013-03-28 18:49:00,45.3,33.6,30.03,NE,37,0.0,222.7,63,0.00,,,0.00,VWS V14.01,2013-03-28 22:49:00,
2013-03-28 18:54:00,45.3,33.6,30.04,NNW,340,0.0,222.7,63,0.00,,,0.00,VWS V14.01,2013-03-28 22:54:00,
2013-03-28 18:59:00,45.2,33.7,30.04,NNW,332,0.0,222.7,64,0.00,,,0.00,VWS V14.01,2013-03-28 22:59:00,
2013-03-28 19:05:00,45.2,34.1,30.04,NNW,336,0.0,222.7,65,0.00,,,0.00,VWS V14.01,2013-03-28 23:05:00,
2013-03-28 19:11:00,45.0,33.7,30.04,NNE,15,0.0,222.7,64,0.00,,,0.00,VWS V14.01,2013-03-28 23:11:00,
2013-03-28 19:16:00,45.0,34.2,30.04,NNE,15,0.0,222.7,66,0.00,,,0.00,VWS V14.01,2013-03-28 23:16:00,
2013-03-28 19:21:00,44.9,34.2,30.05,NNE,15,4.2,222.7,66,0.00,,,0.00,VWS V14.01,2013-03-28 23:21:00,
2013-03-28 19:26:00,44.7,34.3,30.05,NNW,340,0.0,222.7,67,0.00,,,0.00,VWS V14.01,2013-03-28 23:26:00,
2013-03-28 19:32:00,44.6,34.3,30.05,NNW,330,6.0,222.7,67,0.00,,,0.00,VWS V14.01,2013-03-28 23:32:00,
2013-03-28 19:37:00,44.6,34.5,30.05,NNW,338,0.0,222.7,67,0.00,,,0.00,VWS V14.01,2013-03-28 23:37:00,
2013-03-28 19:43:00,44.5,34.4,30.05,NW,323,5.7,222.7,67,0.00,,,0.00,VWS V14.01,2013-03-28 23:43:00,
2013-03-28 19:48:00,44.3,34.3,30.05,NW,312,5.7,222.7,68,0.00,,,0.00,VWS V14.01,2013-03-28 23:48:00,
2013-03-28 19:54:00,44.2,34.2,30.05,WNW,297,4.8,222.7,68,0.00,,,0.00,VWS V14.01,2013-03-28 23:54:00,
2013-03-28 20:00:00,44.1,34.2,30.05,NW,321,0.0,222.7,68,0.00,,,0.00,VWS V14.01,2013-03-29 00:00:00,
2013-03-28 20:05:00,44.1,34.3,30.05,North,359,4.2,222.7,68,0.00,,,0.00,VWS V14.01,2013-03-29 00:05:00,
2013-03-28 20:11:00,44.1,34.3,30.05,WNW,295,7.4,222.7,68,0.00,,,0.00,VWS V14.01,2013-03-29 00:11:00,
2013-03-28 20:17:00,44.1,34.3,30.05,NW,322,3.4,222.7,68,0.00,,,0.00,VWS V14.01,2013-03-29 00:17:00,
2013-03-28 20:22:00,44.1,34.2,30.06,North,354,5.5,222.7,68,0.00,,,0.00,VWS V14.01,2013-03-29 00:22:00,
2013-03-28 20:27:00,44.0,34.1,30.06,NW,304,3.4,222.7,68,0.00,,,0.00,VWS V14.01,2013-03-29 00:27:00,
2013-03-28 20:33:00,43.9,34.1,30.06,WSW,257,3.0,222.7,68,0.00,,,0.00,VWS V14.01,2013-03-29 00:33:00,
2013-03-28 20:39:00,43.9,34.2,30.06,WSW,257,0.0,222.7,68,0.00,,,0.00,VWS V14.01,2013-03-29 00:39:00,
2013-03-28 20:44:00,43.8,34.0,30.06,WSW,257,0.0,222.7,68,0.00,,,0.00,VWS V14.01,2013-03-29 00:44:00,
2013-03-28 20:50:00,43.6,34.0,30.06,WSW,257,0.0,222.7,69,0.00,,,0.00,VWS V14.01,2013-03-29 00:50:00,
2013-03-28 20:56:00,43.5,34.0,30.06,WSW,257,0.0,222.7,69,0.00,,,0.00,VWS V14.01,2013-03-29 00:56:00,
2013-03-28 21:01:00,43.4,34.1,30.06,WSW,257,0.0,222.7,69,0.00,,,0.00,VWS V14.01,2013-03-29 01:01:00,
2013-03-28 21:07:00,43.2,33.9,30.06,WSW,257,0.0,222.7,70,0.00,,,0.00,VWS V14.01,2013-03-29 01:07:00,
2013-03-28 21:13:00,43.0,33.9,30.07,WNW,295,0.0,222.7,70,0.00,,,0.00,VWS V14.01,2013-03-29 01:13:00,
2013-03-28 21:19:00,42.9,33.8,30.07,West,262,3.4,222.7,70,0.00,,,0.00,VWS V14.01,2013-03-29 01:19:00,
2013-03-28 21:25:00,42.9,33.9,30.07,NW,314,0.0,222.7,70,0.00,,,0.00,VWS V14.01,2013-03-29 01:25:00,
2013-03-28 21:31:00,42.9,33.8,30.07,WNW,288,5.2,222.7,70,0.00,,,0.00,VWS V14.01,2013-03-29 01:31:00,
2013-03-28 21:37:00,42.8,33.7,30.07,WNW,291,0.0,222.7,70,0.00,,,0.00,VWS V14.01,2013-03-29 01:37:00,
2013-03-28 21:42:00,42.8,33.7,30.08,WNW,291,0.0,222.7,70,0.00,,,0.00,VWS V14.01,2013-03-29 01:42:00,
2013-03-28 21:47:00,42.7,33.7,30.08,WNW,291,0.0,222.7,70,0.00,,,0.00,VWS V14.01,2013-03-29 01:47:00,
2013-03-28 21:53:00,42.7,33.6,30.08,WNW,291,0.0,222.7,70,0.00,,,0.00,VWS V14.01,2013-03-29 01:53:00,
2013-03-28 21:59:00,42.6,33.5,30.08,WNW,291,0.0,222.7,70,0.00,,,0.00,VWS V14.01,2013-03-29 01:59:00,
2013-03-28 22:04:00,42.6,33.7,30.08,WNW,291,0.0,222.7,71,0.00,,,0.00,VWS V14.01,2013-03-29 02:04:00,
2013-03-28 22:10:00,42.5,33.7,30.08,WNW,291,0.0,222.7,71,0.00,,,0.00,VWS V14.01,2013-03-29 02:10:00,
2013-03-28 22:15:00,42.6,33.9,30.08,WNW,291,0.0,222.7,71,0.00,,,0.00,VWS V14.01,2013-03-29 02:15:00,
2013-03-28 22:20:00,42.5,33.6,30.08,WNW,291,0.0,222.7,70,0.00,,,0.00,VWS V14.01,2013-03-29 02:20:00,
2013-03-28 22:25:00,42.6,33.8,30.08,WNW,291,0.0,222.7,71,0.00,,,0.00,VWS V14.01,2013-03-29 02:25:00,
2013-03-28 22:31:00,42.5,33.6,30.08,WNW,291,0.0,222.7,71,0.00,,,0.00,VWS V14.01,2013-03-29 02:31:00,
2013-03-28 22:36:00,42.4,33.6,30.08,WNW,291,0.0,222.7,71,0.00,,,0.00,VWS V14.01,2013-03-29 02:36:00,
2013-03-28 22:41:00,42.3,33.7,30.08,WNW,291,0.0,222.7,71,0.00,,,0.00,VWS V14.01,2013-03-29 02:41:00,
2013-03-28 22:47:00,42.2,33.8,30.08,WNW,291,0.0,222.7,72,0.00,,,0.00,VWS V14.01,2013-03-29 02:47:00,
2013-03-28 22:52:00,42.2,33.6,30.08,WNW,291,0.0,222.7,71,0.00,,,0.00,VWS V14.01,2013-03-29 02:52:00,
2013-03-28 22:57:00,42.3,33.4,30.08,NW,308,0.0,222.7,70,0.00,,,0.00,VWS V14.01,2013-03-29 02:57:00,
2013-03-28 23:02:00,42.5,33.5,30.09,NW,323,0.0,222.7,70,0.00,,,0.00,VWS V14.01,2013-03-29 03:02:00,
2013-03-28 23:08:00,42.5,33.4,30.08,NW,323,0.0,222.7,70,0.00,,,0.00,VWS V14.01,2013-03-29 03:08:00,
2013-03-28 23:13:00,42.7,33.2,30.08,NW,323,0.0,222.7,69,0.00,,,0.00,VWS V14.01,2013-03-29 03:13:00,
2013-03-28 23:18:00,42.9,33.1,30.08,NNW,343,2.6,222.7,68,0.00,,,0.00,VWS V14.01,2013-03-29 03:18:00,
2013-03-28 23:23:00,43.0,33.1,30.08,North,349,5.6,222.7,68,0.00,,,0.00,VWS V14.01,2013-03-29 03:23:00,
2013-03-28 23:29:00,43.1,33.2,30.09,NW,305,4.6,222.7,68,0.00,,,0.00,VWS V14.01,2013-03-29 03:29:00,
2013-03-28 23:34:00,43.1,32.9,30.09,NW,309,9.3,222.7,67,0.00,,,0.00,VWS V14.01,2013-03-29 03:34:00,
2013-03-28 23:39:00,43.3,33.1,30.09,NW,322,7.0,222.7,67,0.00,,,0.00,VWS V14.01,2013-03-29 03:39:00,
2013-03-28 23:45:00,43.3,32.9,30.09,North,7,5.8,222.7,67,0.00,,,0.00,VWS V14.01,2013-03-29 03:45:00,
2013-03-28 23:50:00,43.3,33.0,30.09,NW,321,0.0,222.7,67,0.00,,,0.00,VWS V14.01,2013-03-29 03:50:00,
2013-03-28 23:55:00,43.3,33.1,30.09,NNW,332,0.0,222.7,67,0.00,,,0.00,VWS V14.01,2013-03-29 03:55:00,